Regional Weather Roundup
Issued by NWS Albany, NY

Home | Current Version | Previous Version | Text Only | Print | Product List | Glossary On
Versions: 1 2 3 4 5 6 7 8 9 10 11 12 13 14 15 16 17 18 19 20 21 22 23 24 25 26 27 28 29 30 31 32 33 34 35 36 37 38 39 40 41 42 43 44 45 46 47
000
ASUS41 KALY 041410
RWRALY

NEW YORK STATE HOURLY WEATHER ROUNDUP
NATIONAL WEATHER SERVICE ALBANY NY
1000 AM EDT FRI SEP 04 2015

NOTE: "FAIR" INDICATES FEW OR NO CLOUDS BELOW 12,000 FEET WITH NO
SIGNIFICANT WEATHER AND/OR NO OBSTRUCTIONS TO VISIBILITY.

NYZ032-033-038>043-046>054-057>066-NYZ062>081-041500-
EAST


CITY           SKY/WX    TMP DP  RH WIND       PRES   REMARKS
ALBANY         MOSUNNY   71  56  58 N5        30.13R
GLENS FALLS    SUNNY     71  54  54 N8        30.14R
POUGHKEEPSIE   PTSUNNY   77  62  59 N7        30.09R
NEWBURGH       MOSUNNY   73  64  73 E9        30.11R
MONTGOMERY     MOSUNNY   77  63  61 NE13      30.10R
WHITE PLAINS   PTSUNNY   76  68  76 E6        30.08R
ISLIP          CLOUDY    78  67  68 E8        30.05R
NEW YORK CITY  PTSUNNY   78  67  68 NE17      30.05R
CENTRAL PARK   MOSUNNY   80  67  64 E8        30.08R
$$

NYZ005>009-017-018-044>046-055-056-041500-
CENTRAL


CITY           SKY/WX    TMP DP  RH WIND       PRES   REMARKS
FULTON         SUNNY     75  62  64 CALM      30.12R
SYRACUSE       MOSUNNY   73  63  70 E7        30.10R
ROME           SUNNY     72  56  57 VRB3      30.13R
ELMIRA         CLOUDY    73  69  87 E5        30.10R
BINGHAMTON     SUNNY     70  64  81 CALM      30.13R
MONTICELLO     CLOUDY    72  66  83 E12       30.14R
$$

NYZ026>034-041>043-041500-
NORTH


CITY           SKY/WX    TMP DP  RH WIND       PRES   REMARKS
WATERTOWN      SUNNY     71  55  56 NE9       30.13R
FORT DRUM      NOT AVBL
MASSENA        SUNNY     66  54  65 NE13      30.18R
SARANAC LAKE   SUNNY     67  47  48 NE9       30.18R
PLATTSBURGH    SUNNY     66  54  65 N6        30.18R
$$

NYZ001>004-010>016-019>021-041500-
WEST


CITY           SKY/WX    TMP DP  RH WIND       PRES   REMARKS
NIAGARA FALLS  PTSUNNY   76  67  73 E10       30.08R
BUFFALO        MOSUNNY   76  67  73 E7        30.08R
DUNKIRK        MOSUNNY   78  69  73 E3        30.07R
JAMESTOWN      SUNNY     68  64  88 S5        30.11R
WELLSVILLE     CLOUDY    69  65  86 E5        30.17R FOG
ROCHESTER      SUNNY     75  67  76 E6        30.10S
PENN YAN       CLOUDY    69  67  93 CALM      30.12R FOG
$$

             KEY
       WCI = WIND CHILL INDEX
       VSB = VISIBILITY
       HX  = HEAT INDEX
$$


USA.gov is the U.S. government's official web portal to all federal, state and local government web resources and services.